Location: Unspecified
(50.7693°N, 0.0000°E)
Time: 22:45:58
(UTC+00:00)

Transit 2A - Pass Details

Date: 02 July 2019
Orbit: 600 x 959 km, 66.7° (Epoch: 13 October)

Event Time Altitude Azimuth Distance (km) Brightness Sun altitude
Rises 21:35:38 0° 199° (SSW) 3,623 9.1 -9.3°
Reaches altitude 10° 21:38:15 10° 195° (SSW) 2,685 8.4 -9.5°
Maximum altitude 21:44:24 56° 119° (ESE) 1,117 6.5 -10.1°
Drops below altitude 10° 21:50:23 10° 44° (NE) 2,605 8.9 -10.5°
Sets 21:52:52 0° 40° (NE) 3,508 9.7 -10.8°
